FW8647 Weather Reports


time (UTC)temp
C
wind
direction
speed
KPH
gust
KPH
rain 1hr
cm
rain 24hr
cm
rain mn
cm
humidity
%
barometer
mb
20260503211127 12 266 8.0 11.3 0.00 0.00 0.00 57 1012.1
20260503210126 12 313 19.3 25.7 0.00 0.00 0.00 55 1012.4
20260503205124 12 282 14.5 16.1 0.00 0.00 0.00 55 1012.4
20260503204124 12 268 4.8 11.3 0.00 0.00 0.00 54 1012.5
20260503203119 12 253 6.4 8.0 0.00 0.00 0.00 55 1012.4
20260503202114 12 339 12.9 22.5 0.00 0.00 0.00 55 1012.3
20260503201109 12 330 16.1 25.7 0.00 0.00 0.00 54 1012.6
20260503200107 12 270 24.1 29.0 0.00 0.00 0.00 53 1012.5
20260503195105 12 230 8.0 12.9 0.00 0.00 0.00 52 1012.6
20260503194103 13 239 11.3 14.5 0.00 0.00 0.00 51 1012.6
20260503193101 13 294 22.5 27.4 0.00 0.00 0.00 51 1012.5
20260503192100 13 281 19.3 29.0 0.00 0.00 0.00 49 1012.7
20260503191059 13 242 16.1 27.4 0.00 0.00 0.00 50 1012.8
20260503190059 13 301 24.1 27.4 0.00 0.00 0.00 49 1012.9
20260503185055 13 249 20.9 27.4 0.00 0.00 0.00 46 1012.9
20260503184054 13 275 24.1 29.0 0.00 0.00 0.00 43 1012.6
20260503183054 13 187 12.9 16.1 0.00 0.00 0.00 42 1012.6
20260503182050 14 170 16.1 22.5 0.00 0.00 0.00 41 1012.5
20260503181049 14 222 17.7 22.5 0.00 0.00 0.00 41 1012.7
20260503180044 13 214 22.5 33.8 0.00 0.00 0.00 44 1013.2
20260503175044 13 211 17.7 25.7 0.00 0.00 0.00 55 1012.9
20260503174043 13 211 17.7 25.7 0.00 0.00 0.00 55 1013.2
20260503173041 13 210 35.4 40.2 0.00 0.00 0.00 58 1013.5
20260503172041 12 192 9.7 17.7 0.00 0.00 0.00 58 1013.7
20260503171041 12 192 29.0 35.4 0.00 0.00 0.00 57 1013.7
20260503131007 5 230 4.8 9.7 0.00 0.00 0.00 63 1016.7
20260503080849 -17 0.0 0.0 0.00 0.00 0.00 1016.8
20260503072840 2 201 3.2 4.8 0.00 0.00 0.00 82 1016.8
20260503071839 2 201 3.2 4.8 0.00 0.00 0.00 82 1016.8
20260503070838 2 201 1.6 3.2 0.00 0.00 0.00 81 1017.0
20260503054820 2 196 1.6 3.2 0.00 0.00 0.00 73 1017.7
20260503053819 2 201 4.8 12.9 0.00 0.00 0.00 72 1017.8
20260503052819 2 193 1.6 3.2 0.00 0.00 0.00 70 1017.8
20260503051818 2 217 1.6 3.2 0.00 0.00 0.00 68 1017.8
20260503050818 2 226 3.2 3.2 0.00 0.00 0.00 65 1017.9
20260503045817 2 222 4.8 4.8 0.00 0.00 0.00 62 1017.8
20260503044817 2 210 4.8 9.7 0.00 0.00 0.00 58 1018.1
20260503043816 2 195 3.2 3.2 0.00 0.00 0.00 56 1018.0
20260503042815 2 181 3.2 8.0 0.00 0.00 0.00 55 1018.1
20260503041814 2 226 0.0 1.6 0.00 0.00 0.00 53 1018.0
20260503040809 2 207 0.0 1.6 0.00 0.00 0.00 51 1018.4
20260503035808 2 197 0.0 0.0 0.00 0.00 0.00 51 1018.3
20260503034808 3 202 0.0 0.0 0.00 0.00 0.00 49 1018.0
20260503033808 3 217 0.0 0.0 0.00 0.00 0.00 49 1018.4
20260503032804 3 215 0.0 0.0 0.00 0.00 0.00 48 1018.4
20260503031759 3 245 0.0 0.0 0.00 0.00 0.00 48 1018.4
20260503030759 3 233 0.0 1.6 0.00 0.00 0.00 48 1018.3
20260503025757 3 225 0.0 0.0 0.00 0.00 0.00 48 1018.3
20260503024758 3 224 0.0 0.0 0.00 0.00 0.00 48 1018.7
20260503023757 3 222 0.0 0.0 0.00 0.00 0.00 48 1018.5
20260503022756 3 214 0.0 0.0 0.00 0.00 0.00 48 1018.7
20260503021753 3 230 0.0 0.0 0.00 0.00 0.00 46 1018.7
20260503020753 3 231 0.0 0.0 0.00 0.00 0.00 46 1018.7
20260503015752 3 247 0.0 0.0 0.00 0.00 0.00 47 1018.6
20260503014751 3 143 0.0 0.0 0.00 0.00 0.00 46 1018.7
20260503013746 3 132 0.0 0.0 0.00 0.00 0.00 46 1018.5
20260503012746 3 134 1.6 1.6 0.00 0.00 0.00 46 1018.5
20260503011746 3 137 1.6 1.6 0.00 0.00 0.00 46 1018.4
20260503010745 4 221 1.6 1.6 0.00 0.00 0.00 46 1018.3
20260503005740 4 245 1.6 1.6 0.00 0.00 0.00 45 1018.3
20260503004739 4 264 0.0 0.0 0.00 0.00 0.00 46 1018.3
20260503003734 4 294 0.0 1.6 0.00 0.00 0.00 45 1018.0
20260503002733 5 276 1.6 1.6 0.00 0.00 0.00 43 1018.0
20260503001732 5 311 4.8 8.0 0.00 0.00 0.00 40 1018.1
20260503000727 5 323 4.8 8.0 0.00 0.00 0.00 39 1018.0
20260502235726 5 329 4.8 4.8 0.00 0.00 0.00 39 1018.1
20260502234726 6 341 4.8 9.7 0.00 0.00 0.00 38 1018.0
20260502233726 6 312 6.4 9.7 0.00 0.00 0.00 38 1017.8
20260502232724 6 336 1.6 3.2 0.00 0.00 0.00 39 1018.0
20260502231724 6 327 9.7 14.5 0.00 0.00 0.00 40 1018.0
20260502230721 6 311 12.9 14.5 0.00 0.00 0.00 41 1018.0
20260502225720 6 327 8.0 12.9 0.00 0.00 0.00 43 1018.0
20260502224719 5 298 4.8 8.0 0.00 0.00 0.00 43 1018.1
20260502223714 5 345 3.2 3.2 0.00 0.00 0.00 45 1018.1
20260502222709 5 295 3.2 4.8 0.00 0.00 0.00 46 1017.9
20260502221708 5 331 0.0 1.6 0.00 0.00 0.00 50 1018.0
20260502220706 5 332 1.6 3.2 0.00 0.00 0.00 51 1018.2
20260502215706 5 1 1.6 1.6 0.00 0.00 0.00 51 1018.3
20260502214706 5 11 0.0 0.0 0.00 0.00 0.00 53 1018.1
20260502213706 5 339 4.8 8.0 0.00 0.00 0.00 56 1018.3
20260502212702 5 297 0.0 0.0 0.00 0.00 0.00 57 1018.1